User: anonymous   Login
Location: Songkhla
(7.2000°N, 100.6000°E)
Time: 22:28:27
(UTC+07:00)
Language:

JY1SAT - Orbit

View from above orbital plane
View from above orbital plane
View from above satellite
View from above satellite

Ground track
Ground track

The orbit data is extracted from the following two-line orbital elements,

1 43803U 18099AX  21215.15682165  .00000473  00000-0  47355-4 0  9992
2 43803  97.6612 284.7656 0013463 252.5447 107.4303 14.95922439145472
Epoch (UTC): 03 August 2021 03:45:49
Eccentricity: 0.0013463
inclination: 97.6612°
perigee height: 570 km
apogee height: 589 km
right ascension of ascending node: 284.7656°
argument of perigee: 252.5447°
revolutions per day: 14.95922439
mean anomaly at epoch: 107.4303°
orbit number at epoch: 14547

The dashed part of the orbit path shows where the satellite is in the earth's shadow,  

DLR